Regional Weather Roundup
Issued by NWS

Home | Current Version | Previous Version | Graphics & Text | Print | Product List | Glossary On
Versions: 1 2 3 4 5 6 7 8 9 10 11 12 13 14 15 16 17 18 19 20 21 22 23 24 25 26 27 28 29 30 31 32 33 34 35 36 37 38 39 40 41 42 43 44 45 46 47 48 49 50
000
ASUS45 KBOU 281807
RWRCO

WEATHER ROUNDUP FOR COLORADO
NATIONAL WEATHER SERVICE DENVER/BOULDER CO
1100 AM MST SAT FEB 28 2015

NOTE: "FAIR" INDICATES FEW OR NO CLOUDS BELOW 12000 FEET WITH NO
SIGNIFICANT WEATHER AND/OR OBSTRUCTIONS TO VISIBILITY.

COZ001>005-013-030-031-281900-
...NORTHWEST COLORADO...

CITY           SKY/WX    TMP DP  RH WIND       PRES   REMARKS
CRAIG          SUNNY     33  15  47 E14       29.78F WCI  23
HAYDEN         SUNNY     28  12  50 SE10      29.78S WCI  19
MEEKER         PTSUNNY   26  15  63 SW3       29.77S
MOUNT WERNER   NOT AVBL
STEAMBOAT SPGS SUNNY     20   6  55 CALM      29.78F
WALDEN         SUNNY     18   5  57 CALM      29.78F
$$

COZ006>008-011-281900-
...WEST CENTRAL VALLEYS...

CITY           SKY/WX    TMP DP  RH WIND       PRES   REMARKS
GRAND JUNCTION CLOUDY    35  18  49 SE13      29.79F WCI  26
MONTROSE       CLOUDY    31  20  63 W3        29.80F
EAGLE          PTSUNNY   27  14  59 CALM      29.85F
RIFLE          PTSUNNY   31  16  54 VRB3      29.80F
DELTA          PTSUNNY   35  23  62 NE5       29.81F WCI  31
NUCLA          CLOUDY    30  27  86 SW3       29.80F
$$

COZ017>023-064>068-281900-
...SOUTHWEST COLORADO...

CITY           SKY/WX    TMP DP  RH WIND       PRES   REMARKS
DURANGO        LGT SNOW  28  25  88 NE7       29.83R VSB 1   WCI  21
CORTEZ         LGT SNOW  32  30  92 NW7       29.80R VSB 3/4 WCI  26
PAGOSA SPRINGS SNOW      29  26  88 CALM      29.83F VSB 1/2
TELLURIDE      LGT SNOW  27  22  84 CALM      29.77R
WOLF CREEK PAS SNOW      14  14 100 SW9       29.82R VSB 1/2 WCI   2
$$

COZ009-010-012-014-032>034-037-058>063-281900-
...CENTRAL COLORADO...

CITY           SKY/WX    TMP DP  RH WIND       PRES   REMARKS
ASPEN          CLOUDY    22   9  57 N6        29.76F WCI  14
BUENA VISTA    CLOUDY    24  12  62 CALM      29.84S
COPPER MTN     PTSUNNY   19   1  45 SE13G22   29.74R WCI   7
BERTHOUD PASS  PTSUNNY    7   0  72 SE13      29.75R WCI  -9
COTTONWOOD PAS CLOUDY    23  14  68 CALM      29.79S
GUNNISON       PTSUNNY   21   9  58 N10       29.85S WCI  10
KREMMLING      MOSUNNY   21   7  53 CALM      29.83F
LEADVILLE      PTSUNNY   11   3  70 S6        29.77R WCI   1
SALIDA         CLOUDY    27  14  56 CALM      29.92F
SUNLIGHT       CLOUDY    23  16  74 SE3         N/A
WILKERSON PASS CLOUDY    18  10  73 SW5       29.81R WCI  11
$$

COZ069>075-281900-
...SAN LUIS VALLEY/SANGRE DE CRISTO MOUNTAINS...

CITY           SKY/WX    TMP DP  RH WIND       PRES   REMARKS
ALAMOSA        LGT SNOW  23  18  81 SE3       29.86F
LA VETA PASS   LGT SNOW  23  19  86 S5        29.81R VSB 3/4 WCI  17
SAGUACHE       CLOUDY    25  19  80 SE6       29.86F WCI  18
$$

COZ035-036-038>040-281900-
...NORTHERN COLORADO FRONT RANGE...

CITY           SKY/WX    TMP DP  RH WIND       PRES   REMARKS
DENVER INTL AP PTSUNNY   16   8  71 W7        29.97S WCI   6
DMNS CITY PARK   N/A     21   8  57 N7G14     29.98F WCI  12
AURORA         PTSUNNY   16   7  68 N6        29.97R WCI   8
FRONT RANGE AP NOT AVBL
ERIE MUNI ARPT SUNNY     19  10  66 CALM      30.00S
BOULDER MUN AP SUNNY     23  10  58 N7        29.99S WCI  15
CENTENNIAL     PTSUNNY   16   8  71 NW6       29.95R WCI   7
BROOMFIELD     MOSUNNY   21  10  63 N9        29.98R WCI  11
FORT COLLINS   SUNNY     19  12  73 CALM      30.01R
LONGMONT       SUNNY     31  10  41 N5        30.02S WCI  26
$$

COZ041-046-047-076>085-087-088-281900-
...PIKES PEAK/PALMER DIVIDE AND SOUTHERN FOOTHILLS...

CITY           SKY/WX    TMP DP  RH WIND       PRES   REMARKS
COLO. SPRINGS  PTSUNNY   15   9  76 SE5       29.92R WCI   8
A. F. ACADEMY  PTSUNNY   27  12  54 CALM      29.88R
ELLICOTT       NOT AVBL
FALCON         MOSUNNY   25  11  55 CALM      29.88S
FORT CARSON    MOSUNNY   14   7  74 VRB1      29.92S
LIMON          SUNNY     13   5  70 CALM      29.97S
MONUMENT HILL  SUNNY     19   9  63 NW12      29.87S WCI   7
TRINIDAD       PTSUNNY   17  11  77 CALM      29.93R
$$

COZ042>045-048>051-090-091-281900-
...NORTHEAST COLORADO...

CITY           SKY/WX    TMP DP  RH WIND       PRES   REMARKS
GREELEY ARPT   SUNNY     19   7  58 NE3       30.01S
AKRON          CLOUDY    16   9  74 SE5       30.00F WCI   9
BURLINGTON     CLOUDY    16   9  74 S10       30.06S HAZE    WCI   4
WRAY           FLURRIES  20  11  68 S5        30.11F WCI  14
STERLING       SUNNY     21  12  68 W3        30.05F
HOLYOKE        NOT AVBL
FORT MORGAN    SUNNY     20   8  60 CALM      30.02F
$$

COZ086-089-092>099-281900-
...SOUTHEAST COLORADO...

CITY           SKY/WX    TMP DP  RH WIND       PRES   REMARKS
PUEBLO         SUNNY     15   8  73 NE5       30.00S WCI   8
LA JUNTA       PTSUNNY   18  11  74 N6        30.03F WCI  10
LAMAR          MOSUNNY   23  12  62 N6        30.06R WCI  16
SPRINGFIELD      N/A     19  13  77 S8        30.00F WCI   9
$$


USA.gov is the U.S. government's official web portal to all federal, state and local government web resources and services.